Location: Arbon
(43.0005°N, 0.7472°E)
Time: 02:18:14
(UTC+00:00)

Vanguard 3 - Pass Details

Date: 26 November 2020
Orbit: 508 x 3262 km, 33.3° (Epoch: 22 January)

Event Time Altitude Azimuth Distance (km) Brightness Sun altitude
Exits shadow 02:07:47 13° 143° (SE) 4,081 10.7 -52.9°
Drops below altitude 10° 02:08:58 10° 140° (SE) 4,424 10.9 -52.7°
Sets 02:14:07 0° 131° (SE) 5,931 11.8 -51.9°
